When you browse on this site, cookies collect data to enhance your experience and personalize the content and advertising you see.
Visit our Privacy Policy to learn more. By continuing to use the site, you agree to this use of cookies and data.

Meteo pe oră la Dziadoszyce

Astăzi, 28 Septembrie, Luni

Timp Temperatura Precipitaţii Vânt Presiune Umiditate
00:00 +9°C° 0 mm 2 m/s 747 mmHg 78%
01:00 +8°C° 0 mm 2 m/s 747 mmHg 80%
02:00 +8°C° 0 mm 2 m/s 747 mmHg 81%
03:00 +9°C° 0 mm 1 m/s 747 mmHg 82%
04:00 +9°C° 0 mm 1 m/s 747 mmHg 83%
05:00 +9°C° 0 mm 1 m/s 748 mmHg 82%
06:00 +8°C° 0 mm 2 m/s 748 mmHg 81%
07:00 +9°C° 0 mm 2 m/s 748 mmHg 80%
08:00 +12°C° 0 mm 2 m/s 748 mmHg 73%
09:00 +13°C° 0 mm 2 m/s 749 mmHg 67%
10:00 +14°C° 0 mm 3 m/s 749 mmHg 61%
11:00 +14°C° 0 mm 3 m/s 749 mmHg 59%
12:00 +15°C° 0 mm 4 m/s 749 mmHg 58%
13:00 +15°C° 0 mm 4 m/s 749 mmHg 56%
14:00 +14°C° 0.2 mm 4 m/s 749 mmHg 65%
15:00 +12°C° 0.2 mm 3 m/s 749 mmHg 74%
16:00 +12°C° 0.2 mm 2 m/s 749 mmHg 82%
17:00 +10°C° 0.1 mm 2 m/s 749 mmHg 84%
18:00 +11°C° 0.1 mm 1 m/s 749 mmHg 85%
19:00 +11°C° 0.1 mm 1 m/s 749 mmHg 87%
20:00 +11°C° 0 mm 1 m/s 749 mmHg 87%
21:00 +11°C° 0 mm 1 m/s 749 mmHg 87%
22:00 +11°C° 0 mm 1 m/s 749 mmHg 87%
23:00 +11°C° 0 mm 1 m/s 749 mmHg 87%

Mâine, 29 Septembrie, Marţi

Timp Temperatura Precipitaţii Vânt Presiune Umiditate
00:00 +11°C° 0 mm 1 m/s 750 mmHg 87%
01:00 +11°C° 0 mm 1 m/s 750 mmHg 87%
02:00 +11°C° 0.1 mm 1 m/s 750 mmHg 88%
03:00 +11°C° 0.1 mm 1 m/s 749 mmHg 90%
04:00 +10°C° 0.1 mm 2 m/s 749 mmHg 92%
05:00 +10°C° 0.2 mm 2 m/s 749 mmHg 92%
06:00 +10°C° 0.2 mm 2 m/s 750 mmHg 93%
07:00 +10°C° 0.2 mm 2 m/s 750 mmHg 93%
08:00 +12°C° 0.1 mm 2 m/s 750 mmHg 92%
09:00 +12°C° 0.1 mm 2 m/s 750 mmHg 90%
10:00 +12°C° 0.1 mm 2 m/s 751 mmHg 89%
11:00 +13°C° 0 mm 2 m/s 751 mmHg 86%
12:00 +14°C° 0 mm 2 m/s 751 mmHg 84%
13:00 +13°C° 0 mm 3 m/s 751 mmHg 81%
14:00 +14°C° 0 mm 3 m/s 751 mmHg 79%
15:00 +14°C° 0 mm 3 m/s 750 mmHg 77%
16:00 +16°C° 0 mm 3 m/s 750 mmHg 75%
17:00 +14°C° 0 mm 3 m/s 750 mmHg 78%
18:00 +13°C° 0 mm 3 m/s 751 mmHg 81%
19:00 +12°C° 0 mm 3 m/s 751 mmHg 85%
20:00 +12°C° 0 mm 3 m/s 751 mmHg 85%
21:00 +12°C° 0 mm 3 m/s 751 mmHg 85%
22:00 +13°C° 0 mm 2 m/s 751 mmHg 85%
23:00 +13°C° 0 mm 2 m/s 751 mmHg 85%

Poimâine, 30 Septembrie, Miercuri

Timp Temperatura Precipitaţii Vânt Presiune Umiditate
00:00 +13°C° 0 mm 2 m/s 751 mmHg 85%
01:00 +12°C° 0 mm 2 m/s 751 mmHg 85%
02:00 +12°C° 0 mm 2 m/s 751 mmHg 85%
03:00 +12°C° 0 mm 2 m/s 751 mmHg 85%
04:00 +12°C° 0 mm 2 m/s 750 mmHg 86%
05:00 +12°C° 0 mm 2 m/s 751 mmHg 86%
06:00 +12°C° 0 mm 2 m/s 751 mmHg 86%
07:00 +12°C° 0 mm 2 m/s 751 mmHg 86%
08:00 +13°C° 0 mm 2 m/s 751 mmHg 84%
09:00 +13°C° 0 mm 2 m/s 751 mmHg 82%
10:00 +14°C° 0 mm 2 m/s 751 mmHg 80%
11:00 +15°C° 0 mm 2 m/s 750 mmHg 75%
12:00 +17°C° 0 mm 2 m/s 750 mmHg 70%
13:00 +18°C° 0 mm 2 m/s 750 mmHg 65%
14:00 +18°C° 0 mm 2 m/s 750 mmHg 66%
15:00 +18°C° 0 mm 2 m/s 749 mmHg 66%
16:00 +18°C° 0 mm 2 m/s 749 mmHg 67%
17:00 +17°C° 0 mm 2 m/s 749 mmHg 71%
18:00 +16°C° 0 mm 2 m/s 749 mmHg 76%
19:00 +15°C° 0 mm 2 m/s 749 mmHg 81%
20:00 +14°C° 0 mm 2 m/s 749 mmHg 82%
21:00 +14°C° 0 mm 2 m/s 749 mmHg 82%
22:00 +14°C° 0 mm 2 m/s 749 mmHg 83%
23:00 +14°C° 0 mm 1 m/s 748 mmHg 82%

1 Octombrie, Joi

Timp Temperatura Precipitaţii Vânt Presiune Umiditate
00:00 +14°C° 0 mm 1 m/s 748 mmHg 81%
01:00 +14°C° 0 mm 1 m/s 748 mmHg 81%
02:00 +13°C° 0 mm 1 m/s 747 mmHg 82%
03:00 +13°C° 0 mm 1 m/s 747 mmHg 84%
04:00 +12°C° 0 mm 1 m/s 747 mmHg 86%
05:00 +12°C° 0 mm 1 m/s 747 mmHg 86%
06:00 +12°C° 0 mm 1 m/s 746 mmHg 86%
07:00 +13°C° 0 mm 1 m/s 746 mmHg 85%
08:00 +14°C° 0 mm 1 m/s 746 mmHg 80%
09:00 +16°C° 0 mm 1 m/s 746 mmHg 74%
10:00 +18°C° 0 mm 1 m/s 745 mmHg 69%
11:00 +19°C° 0 mm 1 m/s 745 mmHg 66%
12:00 +20°C° 0 mm 1 m/s 745 mmHg 62%
13:00 +20°C° 0 mm 2 m/s 744 mmHg 58%
14:00 +20°C° 0 mm 2 m/s 744 mmHg 59%
15:00 +20°C° 0 mm 2 m/s 744 mmHg 59%
16:00 +19°C° 0 mm 2 m/s 743 mmHg 60%
17:00 +18°C° 0 mm 2 m/s 744 mmHg 66%
18:00 +17°C° 0 mm 2 m/s 744 mmHg 72%
19:00 +15°C° 0 mm 2 m/s 744 mmHg 77%
20:00 +14°C° 0 mm 1 m/s 744 mmHg 79%
21:00 +14°C° 0 mm 1 m/s 744 mmHg 81%
22:00 +13°C° 0 mm 1 m/s 744 mmHg 83%
23:00 +13°C° 0 mm 1 m/s 744 mmHg 85%

2 Octombrie, Vineri

Timp Temperatura Precipitaţii Vânt Presiune Umiditate
00:00 +13°C° 0 mm 1 m/s 744 mmHg 86%
01:00 +12°C° 0 mm 2 m/s 744 mmHg 87%
02:00 +12°C° 0 mm 2 m/s 744 mmHg 88%
03:00 +12°C° 0 mm 2 m/s 744 mmHg 89%
04:00 +12°C° 0 mm 2 m/s 744 mmHg 90%
05:00 +12°C° 0 mm 2 m/s 744 mmHg 90%
06:00 +12°C° 0 mm 2 m/s 744 mmHg 89%
07:00 +12°C° 0 mm 2 m/s 745 mmHg 89%
08:00 +13°C° 0 mm 3 m/s 745 mmHg 82%
09:00 +14°C° 0 mm 3 m/s 745 mmHg 75%
10:00 +17°C° 0 mm 4 m/s 745 mmHg 68%
11:00 +18°C° 0 mm 4 m/s 745 mmHg 65%
12:00 +19°C° 0 mm 4 m/s 745 mmHg 62%
13:00 +20°C° 0 mm 5 m/s 745 mmHg 59%
14:00 +19°C° 0 mm 5 m/s 744 mmHg 61%
15:00 +19°C° 0 mm 4 m/s 744 mmHg 62%
16:00 +19°C° 0 mm 4 m/s 744 mmHg 64%
17:00 +17°C° 0 mm 4 m/s 744 mmHg 67%
18:00 +15°C° 0 mm 4 m/s 745 mmHg 71%
19:00 +14°C° 0 mm 4 m/s 745 mmHg 75%
20:00 +14°C° 0 mm 4 m/s 745 mmHg 77%
21:00 +13°C° 0 mm 4 m/s 745 mmHg 79%
22:00 +13°C° 0 mm 4 m/s 745 mmHg 81%
23:00 +13°C° 0 mm 4 m/s 745 mmHg 83%

3 Octombrie, Sâmbătă

Timp Temperatura Precipitaţii Vânt Presiune Umiditate
00:00 +12°C° 0 mm 4 m/s 744 mmHg 84%
01:00 +12°C° 0 mm 4 m/s 744 mmHg 86%
02:00 +12°C° 0 mm 4 m/s 744 mmHg 87%
03:00 +12°C° 0 mm 4 m/s 744 mmHg 88%
04:00 +11°C° 0 mm 4 m/s 743 mmHg 89%
05:00 +12°C° 0 mm 5 m/s 743 mmHg 87%
06:00 +12°C° 0 mm 5 m/s 743 mmHg 85%
07:00 +12°C° 0 mm 5 m/s 743 mmHg 84%
08:00 +14°C° 0 mm 5 m/s 743 mmHg 77%
09:00 +15°C° 0 mm 6 m/s 743 mmHg 71%
10:00 +17°C° 0 mm 6 m/s 743 mmHg 65%
11:00 +19°C° 0 mm 6 m/s 743 mmHg 63%
12:00 +20°C° 0 mm 6 m/s 743 mmHg 61%
13:00 +21°C° 0 mm 6 m/s 742 mmHg 58%
14:00 +21°C° 0 mm 6 m/s 742 mmHg 60%
15:00 +21°C° 0 mm 5 m/s 742 mmHg 62%
16:00 +21°C° 0 mm 5 m/s 742 mmHg 63%
17:00 +20°C° 0 mm 5 m/s 742 mmHg 68%
18:00 +17°C° 0 mm 5 m/s 742 mmHg 72%
19:00 +16°C° 0 mm 5 m/s 742 mmHg 77%
20:00 +16°C° 0 mm 5 m/s 742 mmHg 77%
21:00 +16°C° 0 mm 5 m/s 742 mmHg 77%
22:00 +16°C° 0 mm 5 m/s 742 mmHg 76%
23:00 +16°C° 0 mm 5 m/s 741 mmHg 77%
Arată mai mult